Regional Weather Roundup
Issued by NWS

Home | Current Version | Previous Version | Text Only | Print | Product List | Glossary Off
Versions: 1 2 3 4 5 6 7 8 9 10 11 12 13 14 15 16 17 18 19 20 21 22 23 24 25 26 27 28 29 30 31 32 33 34 35 36 37 38 39 40 41 42 43 44 45 46 47 48 49 50

000
ASUS43 KIND 190809
RWRIN

WEATHER ROUNDUP FOR INDIANA
NATIONAL WEATHER SERVICE INDIANAPOLIS IN
300 AM EST SUN NOV 19 2017

NOTE: "FAIR" INDICATES FEW OR NO CLOUDS BELOW 12,000 FEET WITH NO
SIGNIFICANT WEATHER AND/OR OBSTRUCTIONS TO VISIBILITY.

* - STATION DOES NOT REPORT WEATHER SUCH AS PRECIPITATION OR FOG.

+ - STATION NOT QUALITY CONTROLLED BY THE NATIONAL WEATHER SERVICE.
    USE DATA WITH CAUTION...ESPECIALLY DEWPOINT AND RELATIVE
    HUMIDITY OBSERVATIONS.

INZ001>003-010>013-019-020-190900-
NORTHWEST INDIANA

CITY           SKY/WX    TMP DP  RH WIND       PRES   REMARKS
GARY /AIRPORT/ CLOUDY    38  27  62 NW10G18   29.87R WCI  31
KNOX *+        CLOUDY    37  32  81 NW13      29.83R WCI  29
LA PORTE +     CLOUDY    37  29  73 NW17G24   29.83R WCI  27
MONTICELLO +   CLOUDY    37  30  76 NW10G16   29.87R WCI  29
RENSSELAER +   CLOUDY    36  30  80 W12G17    29.88R WCI  27
VALPARAISO     CLOUDY    39  29  67 NW12      29.85R WCI  32

$$

LMZ046-743>745-190900-
SOUTHERN LAKE MICHIGAN

STATION/POSITION TIME  TEMP    WIND        PRES    WAVE
                       AIR SEA DIR/SP/G            HT
                 (UTC) (F)     (DEG/KT/KT) (MB)    (FT)
BURNS HARBOR     0740   40     300/ 16/ 21 1010.8R
MICHIGAN CITY    0740   38     300/ 21/ 24   N/A

$$

INZ004-005-014>016-021>024-190900-
NORTH CENTRAL INDIANA

CITY           SKY/WX    TMP DP  RH WIND       PRES   REMARKS
GOSHEN         CLOUDY    38  29  70 NW15G21   29.79R WCI  29
LOGANSPORT +   CLOUDY    36  30  80 W10G16    29.86R WCI  28
PERU/GRISSOM   CLOUDY    37  32  82 W13       29.83R WCI  29
ROCHESTER +    CLOUDY    39  32  75 W9        29.83R WCI  33
SOUTH BEND     CLOUDY    37  31  78 NW15      29.81R WCI  28
WARSAW +       CLOUDY    37  32  81 NW14      29.80R WCI  29

$$

INZ006>009-017-018-025>027-190900-
NORTHEAST INDIANA

CITY           SKY/WX    TMP DP  RH WIND       PRES   REMARKS
AUBURN +       RAIN      36  32  87 NW15G26   29.78R WCI  26
FORT WAYNE     CLOUDY    40  31  70 W13       29.79R WCI  32
HUNTINGTON +   CLOUDY    38  31  76 NW8       29.80R WCI  32
KENDALLVILLE + CLOUDY    34  32  93 NW6       29.76R WCI  29

$$

INZ028-029-035-036-043>045-051>053-190900-
WEST CENTRAL INDIANA

CITY           SKY/WX    TMP DP  RH WIND       PRES   REMARKS
CRAWFORDSVL +  CLOUDY    34  32  93 W14       29.90R WCI  24
GREENCASTLE +  CLOUDY    36  30  80 NW7G17    29.91S WCI  30
LAFAYETTE      CLOUDY    37  32  82 W12       29.89R WCI  29
TERRE HAUTE    CLOUDY    36  29  75 NW14G24   29.96R WCI  27

$$

INZ030>032-037>040-046>048-054>057-064-065-190900-
CENTRAL INDIANA

CITY           SKY/WX    TMP DP  RH WIND       PRES   REMARKS
CP ATTERBURY + CLOUDY    37  32  81 NW13G21   29.91R WCI  29
FISHERS *+     CLOUDY    36  34  93 W10G18    29.89R WCI  28
FRANKFORT +    CLOUDY    39  31  71 NW17G23   29.89S WCI  30
GREENWOOD *+   CLOUDY    41  31  68 NW13G20   29.90R
INDIANAPOLIS   CLOUDY    38  29  70 NW15G22   29.90R WCI  29
-EAGLE CREEK   CLOUDY    39  28  64 NW14G23   29.89R WCI  31
MARION +       CLOUDY    37  32  82 W17       29.84R WCI  27
MT COMFORT *+  CLOUDY    37  34  87 NW12G17   29.88R WCI  30
SHELBYVILLE    CLOUDY    39  28  64 NW17G24   29.88R WCI  30
ZIONSVILLE +   CLOUDY    36  29  75 NW15      29.88R WCI  27

$$

INZ033-034-041-042-049-050-058-059-190900-
EAST CENTRAL INDIANA

CITY           SKY/WX    TMP DP  RH WIND       PRES   REMARKS
MUNCIE         CLOUDY    39  31  72 W17G23    29.83R WCI  30
RICHMOND +     CLOUDY    36  34  93 W16G22    29.83R WCI  26

$$

INZ060-061-067>069-081>083-085>088-190900-
SOUTHWEST INDIANA

CITY           SKY/WX    TMP DP  RH WIND       PRES   REMARKS
EVANSVILLE     CLOUDY    40  34  79 NW9G20    30.01R WCI  34
HUNTINGBURG +  CLOUDY    40  34  79 NW9G18    29.98R WCI  34
WASHINGTON +   CLOUDY    39  32  75 NW16      29.97R WCI  30

$$

INZ062-063-066-070>080-084-089>092-190900-
SOUTH CENTRAL AND SOUTHEAST INDIANA

CITY           SKY/WX    TMP DP  RH WIND       PRES   REMARKS
BEDFORD +      CLOUDY    39  30  70 NW7       29.93R WCI  34
BLOOMINGTON    CLOUDY    39  30  70 NW7G21    29.92R WCI  34
MADISON *+     CLOUDY    39  30  70 W12G21    29.93R WCI  32
NORTH VERNON + CLOUDY    37  28  70 NW14G21   29.91R WCI  29
SEYMOUR +      CLOUDY    41  32  70 W13       29.93R

$$





USA.gov is the U.S. government's official web portal to all federal, state and local government web resources and services.